New River MCAS, NC

7:49 AM EST on December 12, 2017 (GMT -0500)
New River Marine Corps Air Station

Weather History for KNCA - March, 2011

Change the Weather History Date:

Friday, March 4, 2011

  Actual Average Record
Temperature  
Mean Temperature 46 °F -  
Max Temperature 62 °F 60 °F 79 °F (2004)
Min Temperature 30 °F 39 °F 18 °F (2009)
Degree Days  
Heating Degree Days 19    
Moisture  
Dew Point 39 °F    
Average Humidity 76    
Maximum Humidity 100    
Minimum Humidity 48    
Precipitation  
Precipitation 0.00 in - - ()
Sea Level Pressure  
Sea Level Pressure 30.52 in    
Wind  
Wind Speed 8 mph (NE)    
Max Wind Speed 12 mph    
Max Gust Speed -    
Visibility 9 miles    
Events      
Averages and records for this station are not official NWS values.
T = Trace of Precipitation, MM = Missing Value Source: NWS Daily Summary

Daily Weather History Graph

Daily Weather History Graph

Search for Another Location

Airport or City:

Trip Planner

Search our weather history database for the weather conditions in past years. The results will help you decide how hot, cold, wet, or windy it might be!

Date:

Astronomy

Mar. 04, 2011 Rise Set
Actual Time 6:35 AM EST 6:08 PM EST
Civil Twilight 6:10 AM EST 6:33 PM EST
Nautical Twilight 5:41 AM EST 7:02 PM EST
Astronomical Twilight 5:11 AM EST 7:31 PM EST
Moon 6:08 AM EST (3/4) 6:13 PM EST (3/4)
Length of Visible Light 12h 23m
Length of Day
11h 32m
Waning Crescent, 0% of the Moon is Illuminated
Mar 4
Waning Crescent
Mar 4
New
Mar 12
First Quarter
Mar 19
Full
Mar 26
Last Quarter

Hourly Weather History & Observations

Time (EST) Temp. Windchill Dew Point Humidity Pressure Visibility Wind Dir Wind Speed Gust Speed Precip Events Conditions
12:56 AM 32.0 °F 26.4 °F 26.1 °F 79% 30.59 in 10.0 mi NNE 5.8 mph - N/A   Clear
1:56 AM 32.0 °F 25.6 °F 27.0 °F 82% 30.57 in 10.0 mi North 6.9 mph - N/A   Clear
2:56 AM 30.9 °F 23.5 °F 26.1 °F 82% 30.56 in 10.0 mi North 8.1 mph - N/A   Clear
3:56 AM 30.9 °F 25.2 °F 28.0 °F 89% 30.54 in 10.0 mi North 5.8 mph - N/A   Clear
4:56 AM 32.0 °F 25.6 °F 28.9 °F 88% 30.54 in 10.0 mi NE 6.9 mph - N/A   Clear
5:56 AM 33.1 °F 26.9 °F 30.0 °F 89% 30.55 in 10.0 mi NNE 6.9 mph - N/A   Clear
6:56 AM 33.1 °F 26.1 °F 30.9 °F 92% 30.56 in 10.0 mi NNE 8.1 mph - N/A   Scattered Clouds
7:56 AM 39.0 °F 31.8 °F 33.1 °F 79% 30.58 in 10.0 mi NNE 11.5 mph - N/A   Scattered Clouds
8:56 AM 45.0 °F 39.7 °F 36.0 °F 71% 30.58 in 10.0 mi NE 10.4 mph - N/A   Scattered Clouds
9:56 AM 51.1 °F - 37.9 °F 61% 30.58 in 10.0 mi NE 11.5 mph - N/A   Partly Cloudy
10:56 AM 55.0 °F - 39.0 °F 55% 30.57 in 10.0 mi ENE 10.4 mph - N/A   Partly Cloudy
11:56 AM 57.9 °F - 39.9 °F 51% 30.56 in 10.0 mi ENE 10.4 mph - N/A   Clear
12:56 PM 60.1 °F - 41.0 °F 49% 30.54 in 10.0 mi NE 6.9 mph - N/A   Clear
1:56 PM 61.0 °F - 42.1 °F 50% 30.52 in 10.0 mi ENE 10.4 mph - N/A   Clear
2:56 PM 62.1 °F - 42.1 °F 48% 30.51 in 10.0 mi ENE 9.2 mph - N/A   Clear
3:56 PM 61.0 °F - 44.1 °F 54% 30.49 in 10.0 mi ENE 9.2 mph - N/A   Mostly Cloudy
4:56 PM 60.1 °F - 43.0 °F 53% 30.48 in 10.0 mi ENE 11.5 mph - N/A   Clear
5:56 PM 55.0 °F - 43.0 °F 64% 30.48 in 10.0 mi East 8.1 mph - N/A   Mostly Cloudy
6:56 PM 52.0 °F - 43.0 °F 71% 30.49 in 10.0 mi ENE 6.9 mph - N/A   Clear
7:56 PM 50.0 °F - 44.1 °F 80% 30.50 in 10.0 mi East 8.1 mph - N/A   Clear
8:56 PM 48.9 °F - 45.0 °F 86% 30.49 in 10.0 mi ENE 11.5 mph - N/A   Clear
9:56 PM 46.9 °F - 45.0 °F 93% 30.48 in 10.0 mi North 4.6 mph - N/A   Clear
10:52 PM 46.4 °F 44.3 °F 44.6 °F 93% 30.47 in 9.0 mi NNE 4.6 mph - N/A   Partly Cloudy
10:56 PM 46.0 °F 43.9 °F 45.0 °F 96% 30.47 in 8.0 mi NNE 4.6 mph - N/A   Partly Cloudy
11:21 PM 46.4 °F 44.3 °F 44.6 °F 93% 30.46 in 8.0 mi NE 4.6 mph - N/A   Mostly Cloudy
11:53 PM 46.4 °F 45.2 °F 46.4 °F 100% 30.45 in 4.0 mi NNE 3.5 mph - N/A   Overcast
11:56 PM 46.9 °F - 46.9 °F 100% 30.46 in 3.0 mi NE 4.6 mph - N/A   Overcast